Location: Staunton
(38.1490°N, 79.0720°W)
Time: 05:55:12
(UTC-05:00)

ISS - Pass Details

Date: 13 January 2019
Orbit: 404 x 407 km, 51.6° (Epoch: 17 January)

Event Time Altitude Azimuth Distance (km) Brightness Sun altitude
Exits shadow 05:58:03 51° 232° (SW) 518 -3.6 -18.2°
Maximum altitude 05:58:10 51° 223° (SW) 516 -3.6 -18.1°
Drops below altitude 10° 06:01:21 10° 147° (SSE) 1,457 -0.4 -17.5°
Sets 06:03:27 0° 142° (SE) 2,313 0.9 -17.1°
